Tracking 35334 objects as of 13-Sep-2026
HD Live streaming from Space Station
objects crossing your sky now

OBJECT F


OBJECT F is no longer on orbit


NORAD ID: 58825
Int'l Code: 2024-016F
Launch date: January 23, 2024
Source: People's Republic of China (PRC)
Launch site: Jiuquan Satellite Launch Center, China (JSC)
Decay date: 2025-11-16
Your satellite tracking list
Your tracking list is empty




NASA's NSSDC Master Catalog

Two Line Element Set (TLE):
1 58825U 24016F   25320.85257990  .17035075  26217-5  86603-3 0  9995
2 58825  97.4436  52.7321 0010359 252.5709 107.4459 16.41836546101669
Source of the keplerian elements: AFSPC